Moyie Springs, ID

12:51 AM PST on February 09, 2016 (GMT -0800)
Boundary Cnty AP, Bonners Fer

Weather History for K65S - October, 2013

Change the Weather History Date:

Saturday, October 5, 2013

  Actual Average (KSZT) Record (KSZT)
Temperature  
Mean Temperature 47 °F -  
Max Temperature 59 °F 62 °F 78 °F (1917)
Min Temperature 35 °F 34 °F 18 °F (1974)
Degree Days  
Heating Degree Days 18    
Moisture  
Dew Point 34 °F    
Average Humidity 67    
Maximum Humidity 87    
Minimum Humidity 36    
Precipitation  
Precipitation 0.00 in - - ()
Sea Level Pressure  
Sea Level Pressure 30.36 in    
Wind  
Wind Speed 3 mph (SSE)    
Max Wind Speed 7 mph    
Max Gust Speed -    
Visibility 10 miles    
Events      
Averages and records for this station are not official NWS values.
T = Trace of Precipitation, MM = Missing Value Source: NWS Daily Summary

Daily Weather History Graph

Daily Weather History Graph

Search for Another Location

Airport or City:

Trip Planner

Search our weather history database for the weather conditions in past years. The results will help you decide how hot, cold, wet, or windy it might be!

Date:

Astronomy

Oct. 05, 2013 Rise Set
Actual Time 6:51 AM PDT 6:15 PM PDT
Civil Twilight 6:19 AM PDT 6:46 PM PDT
Nautical Twilight 5:43 AM PDT 7:22 PM PDT
Astronomical Twilight 5:06 AM PDT 7:59 PM PDT
Moon 7:41 AM PDT (10/5) 6:28 PM PDT (10/5)
Length of Visible Light 12h 26m
Length of Day
11h 24m
New Moon, 1% of the Moon is Illuminated
Oct 5
New Moon
Oct 11
First Quarter
Oct 18
Full
Oct 26
Last Quarter
Nov 3
New

Hourly Weather History & Observations

Time (PDT) Temp. Windchill Dew Point Humidity Pressure Visibility Wind Dir Wind Speed Gust Speed Precip Events Conditions
12:10 AM 41.0 °F 38.0 °F 32.0 °F 70% 30.41 in 10.0 mi South 4.6 mph - N/A   Mostly Cloudy
12:30 AM 39.2 °F 35.9 °F 32.0 °F 75% 30.41 in 10.0 mi ESE 4.6 mph - N/A   Scattered Clouds
12:50 AM 39.2 °F 35.0 °F 32.0 °F 75% 30.41 in 10.0 mi East 5.8 mph - N/A   Clear
1:10 AM 39.2 °F - 32.0 °F 75% 30.42 in 10.0 mi Calm Calm - N/A   Clear
1:30 AM 37.4 °F 34.9 °F 32.0 °F 81% 30.41 in 10.0 mi South 3.5 mph - N/A   Clear
1:50 AM 35.6 °F 32.8 °F 32.0 °F 87% 30.42 in 10.0 mi ESE 3.5 mph - N/A   Clear
2:10 AM 35.6 °F 32.8 °F 32.0 °F 87% 30.41 in 10.0 mi SE 3.5 mph - N/A   Clear
2:30 AM 39.2 °F 35.0 °F 32.0 °F 75% 30.41 in 10.0 mi East 5.8 mph - N/A   Clear
2:50 AM 39.2 °F 37.0 °F 32.0 °F 75% 30.40 in 10.0 mi ESE 3.5 mph - N/A   Mostly Cloudy
3:10 AM 39.2 °F 35.9 °F 32.0 °F 75% 30.41 in 10.0 mi SE 4.6 mph - N/A   Overcast
3:30 AM 37.4 °F - 32.0 °F 81% 30.41 in 10.0 mi Calm Calm - N/A   Overcast
3:50 AM 39.2 °F - 32.0 °F 75% 30.41 in 10.0 mi Calm Calm - N/A   Mostly Cloudy
4:10 AM 37.4 °F 33.8 °F 32.0 °F 81% 30.41 in 10.0 mi ESE 4.6 mph - N/A   Partly Cloudy
4:30 AM 37.4 °F 33.8 °F 32.0 °F 81% 30.40 in 10.0 mi East 4.6 mph - N/A   Scattered Clouds
4:50 AM 39.2 °F - 32.0 °F 75% 30.41 in 10.0 mi Calm Calm - N/A   Partly Cloudy
5:10 AM 37.4 °F 34.9 °F 32.0 °F 81% 30.40 in 10.0 mi SE 3.5 mph - N/A   Scattered Clouds
5:30 AM 35.6 °F 31.7 °F 32.0 °F 87% 30.40 in 10.0 mi SSE 4.6 mph - N/A   Partly Cloudy
5:50 AM 39.2 °F 37.0 °F 32.0 °F 75% 30.41 in 10.0 mi East 3.5 mph - N/A   Mostly Cloudy
6:10 AM 37.4 °F 33.8 °F 32.0 °F 81% 30.41 in 10.0 mi ESE 4.6 mph - N/A   Overcast
6:30 AM 37.4 °F 33.8 °F 32.0 °F 81% 30.40 in 10.0 mi ESE 4.6 mph - N/A   Scattered Clouds
6:50 AM 37.4 °F 32.1 °F 32.0 °F 81% 30.40 in 10.0 mi East 6.9 mph - N/A   Scattered Clouds
7:10 AM 37.4 °F 33.8 °F 32.0 °F 81% 30.41 in 10.0 mi ESE 4.6 mph - N/A   Scattered Clouds
7:30 AM 37.4 °F - 32.0 °F 81% 30.41 in 10.0 mi Calm Calm - N/A   Mostly Cloudy
7:50 AM 39.2 °F - 33.8 °F 81% 30.41 in 10.0 mi Calm Calm - N/A   Mostly Cloudy
8:10 AM 37.4 °F - 32.0 °F 81% 30.41 in 10.0 mi Calm Calm - N/A   Overcast
8:30 AM 39.2 °F 35.9 °F 32.0 °F 75% 30.42 in 10.0 mi East 4.6 mph - N/A   Mostly Cloudy
8:50 AM 39.2 °F - 33.8 °F 81% 30.42 in 10.0 mi Calm Calm - N/A   Overcast
9:10 AM 41.0 °F 38.0 °F 33.8 °F 76% 30.42 in 10.0 mi East 4.6 mph - N/A   Overcast
9:30 AM 44.6 °F - 35.6 °F 71% 30.43 in 10.0 mi Calm Calm - N/A   Overcast
9:50 AM 42.8 °F - 35.6 °F 76% 30.43 in 10.0 mi Calm Calm - N/A   Overcast
10:10 AM 44.6 °F - 35.6 °F 71% 30.42 in 10.0 mi Calm Calm - N/A   Overcast
10:30 AM 44.6 °F - 35.6 °F 71% 30.42 in 10.0 mi Calm Calm - N/A   Overcast
10:50 AM 46.4 °F 45.2 °F 35.6 °F 66% 30.41 in 10.0 mi SE 3.5 mph - N/A   Overcast
11:10 AM 46.4 °F - 37.4 °F 71% 30.42 in 10.0 mi Calm Calm - N/A   Overcast
11:30 AM 48.2 °F - 35.6 °F 62% 30.40 in 10.0 mi Calm Calm - N/A   Overcast
11:50 AM 50.0 °F - 37.4 °F 62% 30.40 in 10.0 mi South 3.5 mph - N/A   Mostly Cloudy
12:10 PM 50.0 °F - 37.4 °F 62% 30.39 in 10.0 mi SSE 3.5 mph - N/A   Overcast
12:30 PM 50.0 °F - 35.6 °F 58% 30.39 in 10.0 mi ESE 3.5 mph - N/A   Overcast
12:50 PM 50.0 °F - 37.4 °F 62% 30.37 in 10.0 mi East 3.5 mph - N/A   Overcast
1:10 PM 53.6 °F - 37.4 °F 54% 30.36 in 10.0 mi East 3.5 mph - N/A   Mostly Cloudy
1:30 PM 53.6 °F - 35.6 °F 51% 30.35 in 10.0 mi Calm Calm - N/A   Clear
1:50 PM 55.4 °F - 35.6 °F 47% 30.34 in 10.0 mi Calm Calm - N/A   Clear
2:10 PM 57.2 °F - 33.8 °F 41% 30.34 in 10.0 mi South 4.6 mph - N/A   Clear
2:30 PM 57.2 °F - 33.8 °F 41% 30.34 in 10.0 mi South 4.6 mph - N/A   Clear
2:50 PM 59.0 °F - 32.0 °F 36% 30.34 in 10.0 mi SW 4.6 mph - N/A   Clear
3:10 PM 59.0 °F - 32.0 °F 36% 30.33 in 10.0 mi South 4.6 mph - N/A   Clear
3:30 PM 59.0 °F - 32.0 °F 36% 30.32 in 10.0 mi SSW 4.6 mph - N/A   Clear
3:50 PM 59.0 °F - 32.0 °F 36% 30.32 in 10.0 mi SSW 6.9 mph - N/A   Clear
4:10 PM 59.0 °F - 32.0 °F 36% 30.31 in 10.0 mi SSW 4.6 mph - N/A   Clear
4:30 PM 59.0 °F - 32.0 °F 36% 30.31 in 10.0 mi SW 5.8 mph - N/A   Clear
4:50 PM 59.0 °F - 32.0 °F 36% 30.30 in 10.0 mi SW 5.8 mph - N/A   Clear
5:10 PM 57.2 °F - 32.0 °F 38% 30.30 in 10.0 mi SW 5.8 mph - N/A   Clear
5:30 PM 57.2 °F - 35.6 °F 44% 30.30 in 10.0 mi SW 4.6 mph - N/A   Clear
5:50 PM 55.4 °F - 35.6 °F 47% 30.29 in 10.0 mi SW 5.8 mph - N/A   Clear
6:10 PM 53.6 °F - 35.6 °F 51% 30.29 in 10.0 mi SW 4.6 mph - N/A   Clear
6:30 PM 53.6 °F - 35.6 °F 51% 30.30 in 10.0 mi SW 3.5 mph - N/A   Clear
6:50 PM 53.6 °F - 35.6 °F 51% 30.31 in 10.0 mi Calm Calm - N/A   Clear
7:10 PM 50.0 °F - 35.6 °F 58% 30.31 in 10.0 mi Calm Calm - N/A   Clear
7:30 PM 48.2 °F - 35.6 °F 62% 30.31 in 10.0 mi NNW 3.5 mph - N/A   Clear
7:50 PM 46.4 °F - 37.4 °F 71% 30.32 in 10.0 mi Calm Calm - N/A   Clear
8:10 PM 46.4 °F - 37.4 °F 71% 30.31 in 10.0 mi Calm Calm - N/A   Clear
8:30 PM 44.6 °F - 37.4 °F 76% 30.31 in 10.0 mi Calm Calm - N/A   Clear
8:50 PM 44.6 °F - 37.4 °F 76% 30.31 in 10.0 mi Calm Calm - N/A   Clear
9:10 PM 42.8 °F - 37.4 °F 81% 30.31 in 10.0 mi Calm Calm - N/A   Clear
9:30 PM 44.6 °F - 37.4 °F 76% 30.31 in 10.0 mi Calm Calm - N/A   Clear
9:50 PM 44.6 °F 43.1 °F 35.6 °F 71% 30.30 in 10.0 mi SE 3.5 mph - N/A   Clear
10:10 PM 44.6 °F - 37.4 °F 76% 30.30 in 10.0 mi Calm Calm - N/A   Clear
10:30 PM 44.6 °F - 35.6 °F 71% 30.30 in 10.0 mi Calm Calm - N/A   Clear
10:50 PM 44.6 °F 43.1 °F 37.4 °F 76% 30.29 in 10.0 mi South 3.5 mph - N/A   Clear
11:10 PM 42.8 °F - 37.4 °F 81% 30.29 in 10.0 mi Calm Calm - N/A   Clear
11:30 PM 41.0 °F - 35.6 °F 81% 30.30 in 10.0 mi Calm Calm - N/A   Clear
11:50 PM 41.0 °F - 35.6 °F 81% 30.30 in 10.0 mi Calm Calm - N/A   Clear